owner,sensor,date,latitude,longitude,vertical_datum,wind_speed,wind_to_direction,wind_speed_of_gust,qcFlag 
WAVCIS,ioos:station:WAVCIS:CSI16:1,2012-04-01T00:00:00Z,29.4012,-89.0355,10.0,5.582,227.0,,'11111222,11111222,99999999' 
WAVCIS,ioos:station:WAVCIS:CSI16:1,2012-04-01T01:00:00Z,29.4012,-89.0355,10.0,5.99,225.0,,'11111222,11111222,99999999' 
WAVCIS,ioos:station:WAVCIS:CSI16:1,2012-04-01T02:00:00Z,29.4012,-89.0355,10.0,5.744,215.0,,'11111222,11111222,99999999' 
WAVCIS,ioos:station:WAVCIS:CSI16:1,2012-04-01T03:00:00Z,29.4012,-89.0355,10.0,6.969,221.0,,'11111222,11111222,99999999' 
WAVCIS,ioos:station:WAVCIS:CSI16:1,2012-04-01T04:00:00Z,29.4012,-89.0355,10.0,5.359,232.0,,'11111222,11111222,99999999' 
WAVCIS,ioos:station:WAVCIS:CSI16:1,2012-04-01T05:00:00Z,29.4012,-89.0355,10.0,3.858,223.0,,'11111222,11111222,99999999' 
WAVCIS,ioos:station:WAVCIS:CSI16:1,2012-04-01T06:00:00Z,29.4012,-89.0355,10.0,4.029,228.0,,'11111222,11111222,99999999' 
WAVCIS,ioos:station:WAVCIS:CSI16:1,2012-04-01T07:00:00Z,29.4012,-89.0355,10.0,3.273,227.0,,'11111222,11111222,99999999' 
WAVCIS,ioos:station:WAVCIS:CSI16:1,2012-04-01T08:00:00Z,29.4012,-89.0355,10.0,4.282,201.0,,'11111222,11111222,99999999' 
WAVCIS,ioos:station:WAVCIS:CSI16:1,2012-04-01T09:00:00Z,29.4012,-89.0355,10.0,4.573,199.0,,'11111222,11111222,99999999' 
WAVCIS,ioos:station:WAVCIS:CSI16:1,2012-04-01T10:00:00Z,29.4012,-89.0355,10.0,3.676,217.0,,'11111222,11111222,99999999' 
WAVCIS,ioos:station:WAVCIS:CSI16:1,2012-04-01T11:00:00Z,29.4012,-89.0355,10.0,3.392,223.0,,'11111222,11111222,99999999' 
WAVCIS,ioos:station:WAVCIS:CSI16:1,2012-04-01T12:00:00Z,29.4012,-89.0355,10.0,2.72,249.0,,'11111222,11111222,99999999' 
WAVCIS,ioos:station:WAVCIS:CSI16:1,2012-04-01T13:00:00Z,29.4012,-89.0355,10.0,1.982,223.0,,'11111222,11111222,99999999' 
WAVCIS,ioos:station:WAVCIS:CSI16:1,2012-04-01T14:00:00Z,29.4012,-89.0355,10.0,3.092,196.0,,'11111222,11111222,99999999' 
WAVCIS,ioos:station:WAVCIS:CSI16:1,2012-04-01T15:00:00Z,29.4012,-89.0355,10.0,4.148,193.0,,'11111222,11111222,99999999' 
WAVCIS,ioos:station:WAVCIS:CSI16:1,2012-04-01T16:00:00Z,29.4012,-89.0355,10.0,2.404,203.0,,'11111222,11111222,99999999' 
WAVCIS,ioos:station:WAVCIS:CSI16:1,2012-04-01T17:00:00Z,29.4012,-89.0355,10.0,3.064,185.0,,'11111222,11111222,99999999' 
WAVCIS,ioos:station:WAVCIS:CSI16:1,2012-04-01T18:00:00Z,29.4012,-89.0355,10.0,2.858,169.0,,'11111222,11111222,99999999' 
WAVCIS,ioos:station:WAVCIS:CSI16:1,2012-04-01T19:00:00Z,29.4012,-89.0355,10.0,4.195,159.0,,'11111222,11111222,99999999' 
WAVCIS,ioos:station:WAVCIS:CSI16:1,2012-04-01T20:00:00Z,29.4012,-89.0355,10.0,5.561,165.0,,'11111222,11111222,99999999' 
WAVCIS,ioos:station:WAVCIS:CSI16:1,2012-04-01T21:00:00Z,29.4012,-89.0355,10.0,4.779,162.0,,'11111222,11111222,99999999' 
WAVCIS,ioos:station:WAVCIS:CSI16:1,2012-04-01T22:00:00Z,29.4012,-89.0355,10.0,5.893,160.0,,'11111222,11111222,99999999' 
WAVCIS,ioos:station:WAVCIS:CSI16:1,2012-04-01T23:00:00Z,29.4012,-89.0355,10.0,5.384,173.0,,'11111222,11111222,99999999' 
WAVCIS,ioos:station:WAVCIS:CSI16:1,2012-04-02T00:00:00Z,29.4012,-89.0355,10.0,5.775,190.0,,'11111222,11111222,99999999' 
WAVCIS,ioos:station:WAVCIS:CSI16:1,2012-04-02T01:00:00Z,29.4012,-89.0355,10.0,5.116,188.0,,'11111222,11111222,99999999' 
WAVCIS,ioos:station:WAVCIS:CSI16:1,2012-04-02T02:00:00Z,29.4012,-89.0355,10.0,4.025,177.0,,'11111222,11111222,99999999' 
WAVCIS,ioos:station:WAVCIS:CSI16:1,2012-04-02T03:00:00Z,29.4012,-89.0355,10.0,4.93,162.0,,'11111222,11111222,99999999' 
WAVCIS,ioos:station:WAVCIS:CSI16:1,2012-04-02T04:00:00Z,29.4012,-89.0355,10.0,5.002,164.0,,'11111222,11111222,99999999' 
WAVCIS,ioos:station:WAVCIS:CSI16:1,2012-04-02T05:00:00Z,29.4012,-89.0355,10.0,5.108,177.0,,'11111222,11111222,99999999' 
WAVCIS,ioos:station:WAVCIS:CSI16:1,2012-04-02T06:00:00Z,29.4012,-89.0355,10.0,5.481,180.0,,'11111222,11111222,99999999' 
WAVCIS,ioos:station:WAVCIS:CSI16:1,2012-04-02T07:00:00Z,29.4012,-89.0355,10.0,4.878,180.0,,'11111222,11111222,99999999' 
WAVCIS,ioos:station:WAVCIS:CSI16:1,2012-04-02T08:00:00Z,29.4012,-89.0355,10.0,5.653,179.0,,'11111222,11111222,99999999' 
WAVCIS,ioos:station:WAVCIS:CSI16:1,2012-04-02T09:00:00Z,29.4012,-89.0355,10.0,5.816,182.0,,'11111222,11111222,99999999' 
WAVCIS,ioos:station:WAVCIS:CSI16:1,2012-04-02T10:00:00Z,29.4012,-89.0355,10.0,4.404,164.0,,'11111222,11111222,99999999' 
WAVCIS,ioos:station:WAVCIS:CSI16:1,2012-04-02T11:00:00Z,29.4012,-89.0355,10.0,3.896,156.0,,'11111222,11111222,99999999' 
WAVCIS,ioos:station:WAVCIS:CSI16:1,2012-04-02T12:00:00Z,29.4012,-89.0355,10.0,4.044,187.0,,'11111222,11111222,99999999' 
WAVCIS,ioos:station:WAVCIS:CSI16:1,2012-04-02T13:00:00Z,29.4012,-89.0355,10.0,4.643,180.0,,'11111222,11111222,99999999' 
WAVCIS,ioos:station:WAVCIS:CSI16:1,2012-04-02T14:00:00Z,29.4012,-89.0355,10.0,5.612,165.0,,'11111222,11111222,99999999' 
WAVCIS,ioos:station:WAVCIS:CSI16:1,2012-04-02T15:00:00Z,29.4012,-89.0355,10.0,5.576,162.0,,'11111222,11111222,99999999' 
WAVCIS,ioos:station:WAVCIS:CSI16:1,2012-04-02T16:00:00Z,29.4012,-89.0355,10.0,5.001,148.0,,'11111222,11111222,99999999' 
WAVCIS,ioos:station:WAVCIS:CSI16:1,2012-04-02T17:00:00Z,29.4012,-89.0355,10.0,6.489,142.0,,'11111222,11111222,99999999' 
WAVCIS,ioos:station:WAVCIS:CSI16:1,2012-04-02T18:00:00Z,29.4012,-89.0355,10.0,6.768,156.0,,'11111222,11111222,99999999' 
WAVCIS,ioos:station:WAVCIS:CSI16:1,2012-04-02T19:00:00Z,29.4012,-89.0355,10.0,7.43,167.0,,'11111222,11111222,99999999' 
WAVCIS,ioos:station:WAVCIS:CSI16:1,2012-04-02T20:00:00Z,29.4012,-89.0355,10.0,7.53,159.0,,'11111222,11111222,99999999' 
WAVCIS,ioos:station:WAVCIS:CSI16:1,2012-04-02T21:00:00Z,29.4012,-89.0355,10.0,8.25,155.0,,'11111222,11111222,99999999' 
WAVCIS,ioos:station:WAVCIS:CSI16:1,2012-04-02T22:00:00Z,29.4012,-89.0355,10.0,8.42,160.0,,'11111222,11111222,99999999' 
WAVCIS,ioos:station:WAVCIS:CSI16:1,2012-04-02T23:00:00Z,29.4012,-89.0355,10.0,6.83,161.0,,'11111222,11111222,99999999' 
WAVCIS,ioos:station:WAVCIS:CSI16:1,2012-04-03T00:00:00Z,29.4012,-89.0355,10.0,7.96,158.0,,'11111222,11111222,99999999' 
WAVCIS,ioos:station:WAVCIS:CSI16:1,2012-04-03T01:00:00Z,29.4012,-89.0355,10.0,8.3,152.0,,'11111222,11111222,99999999' 
WAVCIS,ioos:station:WAVCIS:CSI16:1,2012-04-03T02:00:00Z,29.4012,-89.0355,10.0,7.7,157.0,,'11111222,11111222,99999999' 
WAVCIS,ioos:station:WAVCIS:CSI16:1,2012-04-03T03:00:00Z,29.4012,-89.0355,10.0,3.821,142.0,,'11111222,11111222,99999999' 
WAVCIS,ioos:station:WAVCIS:CSI16:1,2012-04-03T04:00:00Z,29.4012,-89.0355,10.0,9.57,336.0,,'11111222,11111222,99999999' 
WAVCIS,ioos:station:WAVCIS:CSI16:1,2012-04-03T05:00:00Z,29.4012,-89.0355,10.0,9.75,21.0,,'11111222,11111222,99999999' 
WAVCIS,ioos:station:WAVCIS:CSI16:1,2012-04-03T06:00:00Z,29.4012,-89.0355,10.0,10.25,23.0,,'11111222,11111222,99999999' 
WAVCIS,ioos:station:WAVCIS:CSI16:1,2012-04-03T07:00:00Z,29.4012,-89.0355,10.0,9.29,348.0,,'11111222,11111222,99999999' 
WAVCIS,ioos:station:WAVCIS:CSI16:1,2012-04-03T08:00:00Z,29.4012,-89.0355,10.0,10.49,21.0,,'11111222,11111222,99999999' 
WAVCIS,ioos:station:WAVCIS:CSI16:1,2012-04-03T09:00:00Z,29.4012,-89.0355,10.0,2.988,40.0,,'11111222,11111222,99999999' 
WAVCIS,ioos:station:WAVCIS:CSI16:1,2012-04-03T10:00:00Z,29.4012,-89.0355,10.0,2.176,114.0,,'11111222,11111222,99999999' 
WAVCIS,ioos:station:WAVCIS:CSI16:1,2012-04-03T11:00:00Z,29.4012,-89.0355,10.0,7.9,117.0,,'11111222,11111222,99999999' 
WAVCIS,ioos:station:WAVCIS:CSI16:1,2012-04-03T12:00:00Z,29.4012,-89.0355,10.0,5.832,117.0,,'11111222,11111222,99999999' 
WAVCIS,ioos:station:WAVCIS:CSI16:1,2012-04-03T13:00:00Z,29.4012,-89.0355,10.0,8.53,130.0,,'11111222,11111222,99999999' 
WAVCIS,ioos:station:WAVCIS:CSI16:1,2012-04-03T14:00:00Z,29.4012,-89.0355,10.0,8.88,143.0,,'11111222,11111222,99999999' 
WAVCIS,ioos:station:WAVCIS:CSI16:1,2012-04-03T15:00:00Z,29.4012,-89.0355,10.0,7.58,144.0,,'11111222,11111222,99999999' 
WAVCIS,ioos:station:WAVCIS:CSI16:1,2012-04-03T16:00:00Z,29.4012,-89.0355,10.0,6.658,158.0,,'11111222,11111222,99999999' 
WAVCIS,ioos:station:WAVCIS:CSI16:1,2012-04-03T17:00:00Z,29.4012,-89.0355,10.0,6.851,166.0,,'11111222,11111222,99999999' 
WAVCIS,ioos:station:WAVCIS:CSI16:1,2012-04-03T18:00:00Z,29.4012,-89.0355,10.0,6.101,167.0,,'11111222,11111222,99999999' 
WAVCIS,ioos:station:WAVCIS:CSI16:1,2012-04-03T19:00:00Z,29.4012,-89.0355,10.0,7.2,165.0,,'11111222,11111222,99999999' 
WAVCIS,ioos:station:WAVCIS:CSI16:1,2012-04-03T20:00:00Z,29.4012,-89.0355,10.0,8.27,179.0,,'11111222,11111222,99999999' 
WAVCIS,ioos:station:WAVCIS:CSI16:1,2012-04-03T21:00:00Z,29.4012,-89.0355,10.0,7.36,170.0,,'11111222,11111222,99999999' 
WAVCIS,ioos:station:WAVCIS:CSI16:1,2012-04-03T22:00:00Z,29.4012,-89.0355,10.0,5.163,166.0,,'11111222,11111222,99999999' 
WAVCIS,ioos:station:WAVCIS:CSI16:1,2012-04-03T23:00:00Z,29.4012,-89.0355,10.0,4.881,163.0,,'11111222,11111222,99999999' 
WAVCIS,ioos:station:WAVCIS:CSI16:1,2012-04-04T00:00:00Z,29.4012,-89.0355,10.0,4.823,144.0,,'11111222,11111222,99999999' 
WAVCIS,ioos:station:WAVCIS:CSI16:1,2012-04-04T01:00:00Z,29.4012,-89.0355,10.0,5.17,141.0,,'11111222,11111222,99999999' 
WAVCIS,ioos:station:WAVCIS:CSI16:1,2012-04-04T02:00:00Z,29.4012,-89.0355,10.0,4.932,139.0,,'11111222,11111222,99999999' 
WAVCIS,ioos:station:WAVCIS:CSI16:1,2012-04-04T03:00:00Z,29.4012,-89.0355,10.0,5.991,144.0,,'11111222,11111222,99999999' 
WAVCIS,ioos:station:WAVCIS:CSI16:1,2012-04-04T04:00:00Z,29.4012,-89.0355,10.0,6.585,155.0,,'11111222,11111222,99999999' 
WAVCIS,ioos:station:WAVCIS:CSI16:1,2012-04-04T05:00:00Z,29.4012,-89.0355,10.0,6.676,146.0,,'11111222,11111222,99999999' 
WAVCIS,ioos:station:WAVCIS:CSI16:1,2012-04-04T06:00:00Z,29.4012,-89.0355,10.0,6.34,153.0,,'11111222,11111222,99999999' 
WAVCIS,ioos:station:WAVCIS:CSI16:1,2012-04-04T07:00:00Z,29.4012,-89.0355,10.0,5.027,150.0,,'11111222,11111222,99999999' 
WAVCIS,ioos:station:WAVCIS:CSI16:1,2012-04-04T08:00:00Z,29.4012,-89.0355,10.0,5.886,143.0,,'11111222,11111222,99999999' 
WAVCIS,ioos:station:WAVCIS:CSI16:1,2012-04-04T09:00:00Z,29.4012,-89.0355,10.0,3.815,86.0,,'11111222,11111222,99999999' 
WAVCIS,ioos:station:WAVCIS:CSI16:1,2012-04-04T10:00:00Z,29.4012,-89.0355,10.0,8.67,31.0,,'11111222,11111222,99999999' 
WAVCIS,ioos:station:WAVCIS:CSI16:1,2012-04-04T11:00:00Z,29.4012,-89.0355,10.0,15.88,4.0,,'11111222,11111222,99999999' 
WAVCIS,ioos:station:WAVCIS:CSI16:1,2012-04-04T12:00:00Z,29.4012,-89.0355,10.0,12.24,28.0,,'11111222,11111222,99999999' 
WAVCIS,ioos:station:WAVCIS:CSI16:1,2012-04-04T13:00:00Z,29.4012,-89.0355,10.0,5.711,51.0,,'11111222,11111222,99999999' 
WAVCIS,ioos:station:WAVCIS:CSI16:1,2012-04-04T14:00:00Z,29.4012,-89.0355,10.0,19.81,359.0,,'11111222,11111222,99999999' 
WAVCIS,ioos:station:WAVCIS:CSI16:1,2012-04-04T15:00:00Z,29.4012,-89.0355,10.0,17.16,6.0,,'11111222,11111222,99999999' 
WAVCIS,ioos:station:WAVCIS:CSI16:1,2012-04-04T16:00:00Z,29.4012,-89.0355,10.0,11.07,18.0,,'11111222,11111222,99999999' 
WAVCIS,ioos:station:WAVCIS:CSI16:1,2012-04-04T17:00:00Z,29.4012,-89.0355,10.0,4.267,68.0,,'11111222,11111222,99999999' 
WAVCIS,ioos:station:WAVCIS:CSI16:1,2012-04-04T18:00:00Z,29.4012,-89.0355,10.0,11.32,147.0,,'11111222,11111222,99999999' 
WAVCIS,ioos:station:WAVCIS:CSI16:1,2012-04-04T19:00:00Z,29.4012,-89.0355,10.0,11.14,136.0,,'11111222,11111222,99999999' 
WAVCIS,ioos:station:WAVCIS:CSI16:1,2012-04-04T20:00:00Z,29.4012,-89.0355,10.0,9.69,153.0,,'11111222,11111222,99999999' 
WAVCIS,ioos:station:WAVCIS:CSI16:1,2012-04-04T21:00:00Z,29.4012,-89.0355,10.0,6.989,175.0,,'11111222,11111222,99999999' 
WAVCIS,ioos:station:WAVCIS:CSI16:1,2012-04-04T22:00:00Z,29.4012,-89.0355,10.0,4.342,160.0,,'11111222,11111222,99999999' 
WAVCIS,ioos:station:WAVCIS:CSI16:1,2012-04-04T23:00:00Z,29.4012,-89.0355,10.0,3.132,197.0,,'11111222,11111222,99999999' 
WAVCIS,ioos:station:WAVCIS:CSI16:1,2012-04-05T00:00:00Z,29.4012,-89.0355,10.0,4.381,243.0,,'11111222,11111222,99999999' 
WAVCIS,ioos:station:WAVCIS:CSI16:1,2012-04-05T01:00:00Z,29.4012,-89.0355,10.0,3.413,259.0,,'11111222,11111222,99999999' 
WAVCIS,ioos:station:WAVCIS:CSI16:1,2012-04-05T02:00:00Z,29.4012,-89.0355,10.0,3.599,274.0,,'11111222,11111222,99999999' 
WAVCIS,ioos:station:WAVCIS:CSI16:1,2012-04-05T03:00:00Z,29.4012,-89.0355,10.0,2.848,293.0,,'11111222,11111222,99999999' 
WAVCIS,ioos:station:WAVCIS:CSI16:1,2012-04-05T04:00:00Z,29.4012,-89.0355,10.0,4.002,284.0,,'11111222,11111222,99999999' 
WAVCIS,ioos:station:WAVCIS:CSI16:1,2012-04-05T05:00:00Z,29.4012,-89.0355,10.0,4.164,287.0,,'11111222,11111222,99999999' 
WAVCIS,ioos:station:WAVCIS:CSI16:1,2012-04-05T06:00:00Z,29.4012,-89.0355,10.0,4.976,323.0,,'11111222,11111222,99999999' 
WAVCIS,ioos:station:WAVCIS:CSI16:1,2012-04-05T07:00:00Z,29.4012,-89.0355,10.0,3.963,316.0,,'11111222,11111222,99999999' 
WAVCIS,ioos:station:WAVCIS:CSI16:1,2012-04-05T08:00:00Z,29.4012,-89.0355,10.0,4.889,337.0,,'11111222,11111222,99999999' 
WAVCIS,ioos:station:WAVCIS:CSI16:1,2012-04-05T09:00:00Z,29.4012,-89.0355,10.0,1.765,239.0,,'11111222,11111222,99999999' 
WAVCIS,ioos:station:WAVCIS:CSI16:1,2012-04-05T10:00:00Z,29.4012,-89.0355,10.0,3.266,269.0,,'11111222,11111222,99999999' 
WAVCIS,ioos:station:WAVCIS:CSI16:1,2012-04-05T11:00:00Z,29.4012,-89.0355,10.0,1.963,284.0,,'11111222,11111222,99999999' 
WAVCIS,ioos:station:WAVCIS:CSI16:1,2012-04-05T12:00:00Z,29.4012,-89.0355,10.0,3.526,358.0,,'11111222,11111222,99999999' 
WAVCIS,ioos:station:WAVCIS:CSI16:1,2012-04-05T13:00:00Z,29.4012,-89.0355,10.0,6.198,268.0,,'11111222,11111222,99999999' 
WAVCIS,ioos:station:WAVCIS:CSI16:1,2012-04-05T14:00:00Z,29.4012,-89.0355,10.0,5.629,279.0,,'11111222,11111222,99999999' 
WAVCIS,ioos:station:WAVCIS:CSI16:1,2012-04-05T15:00:00Z,29.4012,-89.0355,10.0,6.479,187.0,,'11111222,11111222,99999999' 
WAVCIS,ioos:station:WAVCIS:CSI16:1,2012-04-05T16:00:00Z,29.4012,-89.0355,10.0,6.557,176.0,,'11111222,11111222,99999999' 
WAVCIS,ioos:station:WAVCIS:CSI16:1,2012-04-05T17:00:00Z,29.4012,-89.0355,10.0,7.28,172.0,,'11111222,11111222,99999999' 
WAVCIS,ioos:station:WAVCIS:CSI16:1,2012-04-05T18:00:00Z,29.4012,-89.0355,10.0,8.69,193.0,,'11111222,11111222,99999999' 
WAVCIS,ioos:station:WAVCIS:CSI16:1,2012-04-05T19:00:00Z,29.4012,-89.0355,10.0,7.22,212.0,,'11111222,11111222,99999999' 
WAVCIS,ioos:station:WAVCIS:CSI16:1,2012-04-05T20:00:00Z,29.4012,-89.0355,10.0,6.016,236.0,,'11111222,11111222,99999999' 
WAVCIS,ioos:station:WAVCIS:CSI16:1,2012-04-05T21:00:00Z,29.4012,-89.0355,10.0,6.203,243.0,,'11111222,11111222,99999999' 
WAVCIS,ioos:station:WAVCIS:CSI16:1,2012-04-05T22:00:00Z,29.4012,-89.0355,10.0,5.819,246.0,,'11111222,11111222,99999999' 
WAVCIS,ioos:station:WAVCIS:CSI16:1,2012-04-05T23:00:00Z,29.4012,-89.0355,10.0,5.857,231.0,,'11111222,11111222,99999999' 
WAVCIS,ioos:station:WAVCIS:CSI16:1,2012-04-06T00:00:00Z,29.4012,-89.0355,10.0,6.564,231.0,,'11111222,11111222,99999999' 
WAVCIS,ioos:station:WAVCIS:CSI16:1,2012-04-06T01:00:00Z,29.4012,-89.0355,10.0,4.178,231.0,,'11111222,11111222,99999999' 
WAVCIS,ioos:station:WAVCIS:CSI16:1,2012-04-06T02:00:00Z,29.4012,-89.0355,10.0,2.617,236.0,,'11111222,11111222,99999999' 
WAVCIS,ioos:station:WAVCIS:CSI16:1,2012-04-06T03:00:00Z,29.4012,-89.0355,10.0,2.872,224.0,,'11111222,11111222,99999999' 
WAVCIS,ioos:station:WAVCIS:CSI16:1,2012-04-06T04:00:00Z,29.4012,-89.0355,10.0,3.474,277.0,,'11111222,11111222,99999999' 
WAVCIS,ioos:station:WAVCIS:CSI16:1,2012-04-06T05:00:00Z,29.4012,-89.0355,10.0,7.06,349.0,,'11111222,11111222,99999999' 
WAVCIS,ioos:station:WAVCIS:CSI16:1,2012-04-06T06:00:00Z,29.4012,-89.0355,10.0,9.67,7.0,,'11111222,11111222,99999999' 
WAVCIS,ioos:station:WAVCIS:CSI16:1,2012-04-06T07:00:00Z,29.4012,-89.0355,10.0,9.31,11.0,,'11111222,11111222,99999999' 
WAVCIS,ioos:station:WAVCIS:CSI16:1,2012-04-06T08:00:00Z,29.4012,-89.0355,10.0,8.83,5.0,,'11111222,11111222,99999999' 
WAVCIS,ioos:station:WAVCIS:CSI16:1,2012-04-06T09:00:00Z,29.4012,-89.0355,10.0,8.85,7.0,,'11111222,11111222,99999999' 
WAVCIS,ioos:station:WAVCIS:CSI16:1,2012-04-06T10:00:00Z,29.4012,-89.0355,10.0,8.67,357.0,,'11111222,11111222,99999999' 
WAVCIS,ioos:station:WAVCIS:CSI16:1,2012-04-06T11:00:00Z,29.4012,-89.0355,10.0,7.22,349.0,,'11111222,11111222,99999999' 
WAVCIS,ioos:station:WAVCIS:CSI16:1,2012-04-06T12:00:00Z,29.4012,-89.0355,10.0,7.66,351.0,,'11111222,11111222,99999999' 
WAVCIS,ioos:station:WAVCIS:CSI16:1,2012-04-06T13:00:00Z,29.4012,-89.0355,10.0,7.22,356.0,,'11111222,11111222,99999999' 
WAVCIS,ioos:station:WAVCIS:CSI16:1,2012-04-06T14:00:00Z,29.4012,-89.0355,10.0,8.84,9.0,,'11111222,11111222,99999999' 
WAVCIS,ioos:station:WAVCIS:CSI16:1,2012-04-06T15:00:00Z,29.4012,-89.0355,10.0,8.02,9.0,,'11111222,11111222,99999999' 
WAVCIS,ioos:station:WAVCIS:CSI16:1,2012-04-06T16:00:00Z,29.4012,-89.0355,10.0,7.73,9.0,,'11111222,11111222,99999999' 
WAVCIS,ioos:station:WAVCIS:CSI16:1,2012-04-06T17:00:00Z,29.4012,-89.0355,10.0,7.77,3.0,,'11111222,11111222,99999999' 
WAVCIS,ioos:station:WAVCIS:CSI16:1,2012-04-06T18:00:00Z,29.4012,-89.0355,10.0,7.12,8.0,,'11111222,11111222,99999999' 
WAVCIS,ioos:station:WAVCIS:CSI16:1,2012-04-06T19:00:00Z,29.4012,-89.0355,10.0,6.291,5.0,,'11111222,11111222,99999999' 
WAVCIS,ioos:station:WAVCIS:CSI16:1,2012-04-06T20:00:00Z,29.4012,-89.0355,10.0,5.406,3.0,,'11111222,11111222,99999999' 
WAVCIS,ioos:station:WAVCIS:CSI16:1,2012-04-06T21:00:00Z,29.4012,-89.0355,10.0,4.582,2.0,,'11111222,11111222,99999999' 
WAVCIS,ioos:station:WAVCIS:CSI16:1,2012-04-06T22:00:00Z,29.4012,-89.0355,10.0,4.102,345.0,,'11111222,11111222,99999999' 
WAVCIS,ioos:station:WAVCIS:CSI16:1,2012-04-06T23:00:00Z,29.4012,-89.0355,10.0,4.593,347.0,,'11111222,11111222,99999999' 
WAVCIS,ioos:station:WAVCIS:CSI16:1,2012-04-07T00:00:00Z,29.4012,-89.0355,10.0,3.24,1.0,,'11111222,11111222,99999999' 
WAVCIS,ioos:station:WAVCIS:CSI16:1,2012-04-07T01:00:00Z,29.4012,-89.0355,10.0,1.741,61.0,,'11111222,11111222,99999999' 
WAVCIS,ioos:station:WAVCIS:CSI16:1,2012-04-07T02:00:00Z,29.4012,-89.0355,10.0,0.958,60.0,,'11111222,11111222,99999999' 
WAVCIS,ioos:station:WAVCIS:CSI16:1,2012-04-07T03:00:00Z,29.4012,-89.0355,10.0,3.164,65.0,,'11111222,11111222,99999999' 
WAVCIS,ioos:station:WAVCIS:CSI16:1,2012-04-07T04:00:00Z,29.4012,-89.0355,10.0,2.915,66.0,,'11111222,11111222,99999999' 
WAVCIS,ioos:station:WAVCIS:CSI16:1,2012-04-07T05:00:00Z,29.4012,-89.0355,10.0,5.189,56.0,,'11111222,11111222,99999999' 
WAVCIS,ioos:station:WAVCIS:CSI16:1,2012-04-07T06:00:00Z,29.4012,-89.0355,10.0,6.97,61.0,,'11111222,11111222,99999999' 
WAVCIS,ioos:station:WAVCIS:CSI16:1,2012-04-07T07:00:00Z,29.4012,-89.0355,10.0,4.896,61.0,,'11111222,11111222,99999999' 
WAVCIS,ioos:station:WAVCIS:CSI16:1,2012-04-07T08:00:00Z,29.4012,-89.0355,10.0,5.731,60.0,,'11111222,11111222,99999999' 
WAVCIS,ioos:station:WAVCIS:CSI16:1,2012-04-07T09:00:00Z,29.4012,-89.0355,10.0,4.214,77.0,,'11111222,11111222,99999999' 
WAVCIS,ioos:station:WAVCIS:CSI16:1,2012-04-07T10:00:00Z,29.4012,-89.0355,10.0,4.495,79.0,,'11111222,11111222,99999999' 
WAVCIS,ioos:station:WAVCIS:CSI16:1,2012-04-07T11:00:00Z,29.4012,-89.0355,10.0,6.391,93.0,,'11111222,11111222,99999999' 
WAVCIS,ioos:station:WAVCIS:CSI16:1,2012-04-07T12:00:00Z,29.4012,-89.0355,10.0,6.807,94.0,,'11111222,11111222,99999999' 
WAVCIS,ioos:station:WAVCIS:CSI16:1,2012-04-07T13:00:00Z,29.4012,-89.0355,10.0,5.656,84.0,,'11111222,11111222,99999999' 
WAVCIS,ioos:station:WAVCIS:CSI16:1,2012-04-07T14:00:00Z,29.4012,-89.0355,10.0,4.474,77.0,,'11111222,11111222,99999999' 
WAVCIS,ioos:station:WAVCIS:CSI16:1,2012-04-07T15:00:00Z,29.4012,-89.0355,10.0,4.815,81.0,,'11111222,11111222,99999999' 
WAVCIS,ioos:station:WAVCIS:CSI16:1,2012-04-07T16:00:00Z,29.4012,-89.0355,10.0,7.33,95.0,,'11111222,11111222,99999999' 
WAVCIS,ioos:station:WAVCIS:CSI16:1,2012-04-07T17:00:00Z,29.4012,-89.0355,10.0,5.674,87.0,,'11111222,11111222,99999999' 
WAVCIS,ioos:station:WAVCIS:CSI16:1,2012-04-07T18:00:00Z,29.4012,-89.0355,10.0,6.208,96.0,,'11111222,11111222,99999999' 
WAVCIS,ioos:station:WAVCIS:CSI16:1,2012-04-07T19:00:00Z,29.4012,-89.0355,10.0,5.828,85.0,,'11111222,11111222,99999999' 
WAVCIS,ioos:station:WAVCIS:CSI16:1,2012-04-07T20:00:00Z,29.4012,-89.0355,10.0,5.34,84.0,,'11111222,11111222,99999999' 
WAVCIS,ioos:station:WAVCIS:CSI16:1,2012-04-07T21:00:00Z,29.4012,-89.0355,10.0,4.7,79.0,,'11111222,11111222,99999999' 
WAVCIS,ioos:station:WAVCIS:CSI16:1,2012-04-07T22:00:00Z,29.4012,-89.0355,10.0,4.599,78.0,,'11111222,11111222,99999999' 
WAVCIS,ioos:station:WAVCIS:CSI16:1,2012-04-07T23:00:00Z,29.4012,-89.0355,10.0,5.823,88.0,,'11111222,11111222,99999999' 
WAVCIS,ioos:station:WAVCIS:CSI16:1,2012-04-08T00:00:00Z,29.4012,-89.0355,10.0,5.252,84.0,,'11111222,11111222,99999999' 
WAVCIS,ioos:station:WAVCIS:CSI16:1,2012-04-08T01:00:00Z,29.4012,-89.0355,10.0,5.688,91.0,,'11111222,11111222,99999999' 
WAVCIS,ioos:station:WAVCIS:CSI16:1,2012-04-08T02:00:00Z,29.4012,-89.0355,10.0,4.77,83.0,,'11111222,11111222,99999999' 
WAVCIS,ioos:station:WAVCIS:CSI16:1,2012-04-08T03:00:00Z,29.4012,-89.0355,10.0,4.694,97.0,,'11111222,11111222,99999999' 
WAVCIS,ioos:station:WAVCIS:CSI16:1,2012-04-08T04:00:00Z,29.4012,-89.0355,10.0,5.591,103.0,,'11111222,11111222,99999999' 
WAVCIS,ioos:station:WAVCIS:CSI16:1,2012-04-08T05:00:00Z,29.4012,-89.0355,10.0,5.82,119.0,,'11111222,11111222,99999999' 
WAVCIS,ioos:station:WAVCIS:CSI16:1,2012-04-08T06:00:00Z,29.4012,-89.0355,10.0,5.311,112.0,,'11111222,11111222,99999999' 
WAVCIS,ioos:station:WAVCIS:CSI16:1,2012-04-08T07:00:00Z,29.4012,-89.0355,10.0,5.968,114.0,,'11111222,11111222,99999999' 
WAVCIS,ioos:station:WAVCIS:CSI16:1,2012-04-08T08:00:00Z,29.4012,-89.0355,10.0,6.579,106.0,,'11111222,11111222,99999999' 
WAVCIS,ioos:station:WAVCIS:CSI16:1,2012-04-08T09:00:00Z,29.4012,-89.0355,10.0,5.886,107.0,,'11111222,11111222,99999999' 
WAVCIS,ioos:station:WAVCIS:CSI16:1,2012-04-08T10:00:00Z,29.4012,-89.0355,10.0,4.696,97.0,,'11111222,11111222,99999999' 
WAVCIS,ioos:station:WAVCIS:CSI16:1,2012-04-08T11:00:00Z,29.4012,-89.0355,10.0,2.942,67.0,,'11111222,11111222,99999999' 
WAVCIS,ioos:station:WAVCIS:CSI16:1,2012-04-08T12:00:00Z,29.4012,-89.0355,10.0,3.18,67.0,,'11111222,11111222,99999999' 
WAVCIS,ioos:station:WAVCIS:CSI16:1,2012-04-08T13:00:00Z,29.4012,-89.0355,10.0,4.41,62.0,,'11111222,11111222,99999999' 
WAVCIS,ioos:station:WAVCIS:CSI16:1,2012-04-08T14:00:00Z,29.4012,-89.0355,10.0,4.809,58.0,,'11111222,11111222,99999999' 
WAVCIS,ioos:station:WAVCIS:CSI16:1,2012-04-08T15:00:00Z,29.4012,-89.0355,10.0,3.685,30.0,,'11111222,11111222,99999999' 
WAVCIS,ioos:station:WAVCIS:CSI16:1,2012-04-08T16:00:00Z,29.4012,-89.0355,10.0,4.425,55.0,,'11111222,11111222,99999999' 
WAVCIS,ioos:station:WAVCIS:CSI16:1,2012-04-08T17:00:00Z,29.4012,-89.0355,10.0,3.267,35.0,,'11111222,11111222,99999999' 
WAVCIS,ioos:station:WAVCIS:CSI16:1,2012-04-08T18:00:00Z,29.4012,-89.0355,10.0,4.744,59.0,,'11111222,11111222,99999999' 
WAVCIS,ioos:station:WAVCIS:CSI16:1,2012-04-08T19:00:00Z,29.4012,-89.0355,10.0,3.048,46.0,,'11111222,11111222,99999999' 
WAVCIS,ioos:station:WAVCIS:CSI16:1,2012-04-08T20:00:00Z,29.4012,-89.0355,10.0,3.66,61.0,,'11111222,11111222,99999999' 
WAVCIS,ioos:station:WAVCIS:CSI16:1,2012-04-08T21:00:00Z,29.4012,-89.0355,10.0,2.984,49.0,,'11111222,11111222,99999999' 
WAVCIS,ioos:station:WAVCIS:CSI16:1,2012-04-08T22:00:00Z,29.4012,-89.0355,10.0,3.507,22.0,,'11111222,11111222,99999999' 
WAVCIS,ioos:station:WAVCIS:CSI16:1,2012-04-08T23:00:00Z,29.4012,-89.0355,10.0,3.191,59.0,,'11111222,11111222,99999999' 
WAVCIS,ioos:station:WAVCIS:CSI16:1,2012-04-09T00:00:00Z,29.4012,-89.0355,10.0,3.023,68.0,,'11111222,11111222,99999999' 
WAVCIS,ioos:station:WAVCIS:CSI16:1,2012-04-09T01:00:00Z,29.4012,-89.0355,10.0,3.141,114.0,,'11111222,11111222,99999999' 
WAVCIS,ioos:station:WAVCIS:CSI16:1,2012-04-09T02:00:00Z,29.4012,-89.0355,10.0,2.101,140.0,,'11111222,11111222,99999999' 
WAVCIS,ioos:station:WAVCIS:CSI16:1,2012-04-09T03:00:00Z,29.4012,-89.0355,10.0,1.269,130.0,,'11111222,11111222,99999999' 
WAVCIS,ioos:station:WAVCIS:CSI16:1,2012-04-09T04:00:00Z,29.4012,-89.0355,10.0,0.885,327.0,,'11111222,11111222,99999999' 
WAVCIS,ioos:station:WAVCIS:CSI16:1,2012-04-09T05:00:00Z,29.4012,-89.0355,10.0,0.769,105.0,,'11111222,11111222,99999999' 